Location: Wald
(31.7579°N, 86.6655°W)
Time: 21:19:35
(UTC+00:00)

Meteor 2-17 Rocket - Pass Details

Date: 14 July 2020
Orbit: 935 x 956 km, 82.5° (Epoch: 13 August)

Event Time Altitude Azimuth Distance (km) Brightness Sun altitude
Exits shadow 03:02:50 37° 180° (S) 1,415 5.0 -22.9°
Maximum altitude 03:05:25 85° 95° (E) 944 4.3 -23.3°
Drops below altitude 10° 03:11:28 10° 8° (N) 2,650 7.3 -24.2°
Sets 03:13:57 0° 7° (N) 3,597 8.1 -24.5°
